Location: Palmerston North
(40.3500°S, 175.6170°E)
Time: 04:46:06
(UTC+13:00)

IRAS Rocket - Pass Details

Date: 24 January 2019
Orbit: 847 x 878 km, 100.0° (Epoch: 20 October)

Event Time Altitude Azimuth Distance (km) Brightness Sun altitude
Rises 23:35:29 0° 168° (SSE) 3,490 8.1 -24.8°
Maximum altitude 23:43:30 65° 251° (WSW) 955 4.5 -25.5°
Enters shadow 23:45:32 39° 317° (NW) 1,283 4.9 -25.7°
